Location: Augustenthal
(51.7167°N, 10.2833°E)
Time: 22:44:06
(UTC+00:00)

Cosmos 2181 Rocket - Pass Details

Date: 18 May 2021
Orbit: 952 x 1014 km, 82.9° (Epoch: 23 June)

Event Time Altitude Azimuth Distance (km) Brightness Sun altitude
Exits shadow 21:25:47 17° 181° (S) 2,232 5.4 -14.6°
Maximum altitude 21:30:41 79° 97° (E) 978 3.9 -15.0°
Drops below altitude 10° 21:36:50 10° 12° (NNE) 2,693 7.1 -15.4°
Sets 21:39:20 0° 11° (NNE) 3,645 8.0 -15.5°
